Flag for U.S.A. Weather past 2 weeks in Santa Rosa, California, U.S.A.

Now
53 °F

Fog.


Feels Like: 53 °F
Forecast: 48 / 77 °F
Wind: No wind

Location: Santa Rosa Sonoma County Airport

Current Time: Apr 28, 2015 at 10:07:25 AM

Latest Report: Apr 28, 2015 at 8:53 AM


Visibility: 2 mi

Pressure: 30.01 "Hg

Humidity: 89%

Dew point: 50 °F

Location of Santa RosaLocation

Historic Weather in Santa Rosa — Graph

°F

Santa Rosa temperature yesterday

Maximum temperature yesterday: 88 °F (at 1:53 PM)
Minimum temperature yesterday: 51 °F (at 3:53 AM)
Average temperature yesterday: 65 °F

Past Weeks' High & Low Weather Summary

 TemperatureHumidityPressure
High88 °F (Apr 27, 1:53 PM)100% (Apr 13, 9:53 AM)30.33 "Hg (Apr 13, 9:53 AM)
Low41 °F (Apr 17, 6:53 AM)12% (Apr 15, 4:53 PM)29.77 "Hg (Apr 23, 5:53 PM)
Average58 °F66%29.96 "Hg
* Reported Apr 13 8:56 AM — Apr 28 8:53 AM, Santa Rosa, Weather by CustomWeather, © 2015

Note: Actual official high and low records may vary slightly from our data, if they occured in-between our weather recording intervals... More about our weather records

Advertising

Santa Rosa weather history for previous 24 hours

 ConditionsComfort  
Time TempWeatherWind HumidityBarometerVisibility
8:53 AM
Tue, Apr 28
53 °FFog.No wind89%30.01 "Hg2 mi
7:53 AM51 °FFog.No wind92%30.00 "Hg2 mi
7:03 AM50 °FFog.No wind94%30.01 "Hg2 mi
6:53 AM51 °FFog.No wind96%29.98 "Hg4 mi
5:53 AM51 °FLow clouds.No wind92%29.97 "Hg9 mi
4:53 AM51 °FLow clouds.No wind92%29.97 "Hg8 mi
3:53 AM50 °FFog.No wind96%29.98 "Hg3 mi
2:53 AM50 °FFog.No wind96%29.98 "Hg5 mi
1:53 AM51 °FLow clouds.5 mph92%29.97 "Hg10 mi
12:53 AM50 °FLow clouds.3 mph96%29.98 "Hg10 mi
11:53 PM
Mon, Apr 27
51 °FLow clouds.5 mph92%29.97 "Hg10 mi
10:53 PM51 °FLow clouds.5 mph92%29.97 "Hg10 mi
9:53 PM51 °FPassing clouds.5 mph92%29.97 "Hg10 mi
8:53 PM52 °FSunny.10 mph89%29.95 "Hg10 mi
7:53 PM55 °FSunny.9 mph80%29.92 "Hg10 mi
6:53 PM63 °FSunny.13 mph65%29.90 "Hg10 mi
5:53 PM73 °FScattered clouds.14 mph51%29.89 "Hg10 mi
4:53 PM84 °FSunny.8 mph26%29.88 "Hg10 mi
3:53 PM84 °FScattered clouds.13 mph26%29.89 "Hg10 mi
2:53 PM86 °FScattered clouds.10 mph26%29.90 "Hg10 mi
1:53 PM88 °FScattered clouds.7 mph23%29.92 "Hg10 mi
12:53 PM86 °FScattered clouds.5 mph26%29.94 "Hg10 mi
11:53 AM83 °FPassing clouds.No wind26%29.96 "Hg10 mi
10:53 AM79 °FSunny.No wind34%29.97 "Hg10 mi
Weather by CustomWeather, © 2015

See weather overviewHow to use our weather pages